Back to catalog

ARIANE 5 R/B

AliveHEO
NORAD 25990·ROCKET BODY·🇫🇷 France

Launched Dec 10, 1999 from Guiana Space Centre

Loading…

Next Passes (next 24 hours)

TLE

FreshSource: Space-Track

Epoch: Sep 13, 2026, 19:50 UTC

1 25990U 99066B   26256.82702195 -.00000081  00000-0  00000-0 0  9990
2 25990  71.5036 302.9419 5895134 111.7174   0.3007  0.55304702 25849

Track ARIANE 5 R/B in real time with AllMySat

Download on the App Store